Other Surface Observations
Issued by NWS

Home | Current Version | Previous Version | Text Only | Print | Product List | Glossary On
Versions: 1 2 3 4 5 6 7 8 9 10 11 12 13 14 15 16 17 18 19 20 21 22 23 24 25 26 27 28 29 30 31 32 33 34 35 36 37 38 39 40 41 42 43 44 45 46 47 48 49 50
000
SXUS52 KTAE 011019
OSOTAE
OSOTAE
North Florida/South Alabama/Southwest Georgia Weather Roundup
National Weather Service Tallahassee Florida
600 AM EDT SAT OCT 01 2016

Note: "fair" indicates few or no clouds below 12,000 feet with no
significant weather and/or obstructions to visibility.

!FLZ017-115-028-034-025-011100
...North Florida...

CITY           SKY/WX    TMP DP  RH WIND       PRES   REMARKS
TALLAHASSEE    CLEAR     57  53  86 CALM      30.03S
APALACHICOLA   CLEAR     62  58  86 N3        30.03S
PERRY          CLEAR     55  53  94 CALM      30.03S
CROSS CITY     PTCLDY    61  59  94 CALM      30.03R
JACKSONVILLE   CLOUDY    67  57  70 NW6       30.02R
$$

!FLZ112-006-005-002-011-011100
...Florida Panhandle...

CITY           SKY/WX    TMP DP  RH WIND       PRES   REMARKS
MARIANNA       CLEAR     57  55  93 CALM      30.04R
BONIFAY        FAIR      54  53  97 CALM      30.06S
PANAMA CITY NW NOT AVBL
TYNDALL AFB    CLEAR     65  55  69 E5        30.03F
TYND DRONE APT FAIR      62  58  86 N8        30.03F
DE FUNIAK SPR  FAIR      57  56  96 CALM      30.05S
EGLIN AFB      CLEAR     57  52  82 NW6       30.04S
DESTIN         CLEAR     67  59  75 CALM      30.04S
HURLBURT       CLEAR     56  53  91 N7        30.03S
CRESTVIEW      CLEAR     51  50  96 CALM      30.06S
PENSACOLA      CLEAR     61  56  83 CALM      30.04F
$$

!ALZ063-066-011100
...South Alabama...

CITY           SKY/WX    TMP DP  RH WIND       PRES   REMARKS
DOTHAN         CLEAR     54  53  97 NW5       30.08S
OZARK CAIRNS   CLEAR     54  53  97 CALM      30.05R
FT RUCKER HELI CLEAR     53  51  93 CALM      30.05R
RUCKER HELI 3  NOT AVBL
RUCKER HELI 2  FAIR      53  51  93 CALM      30.06R
FLORALA APT    CLEAR     53  51  93 CALM      30.07S
ANDALUSIA      CLEAR     58  53  84 CALM      30.06S
TROY           CLEAR     49  49 100 CALM      30.07S
EUFALA         FAIR      50  47  89 CALM      30.05S
MOBILE         CLEAR     57  56  96 CALM      30.06S
$$

!GAZ120>161-011100
...Southwest and South Central Georgia...

CITY           SKY/WX    TMP DP  RH WIND       PRES   REMARKS
THOMASVILLE    FAIR      57  55  94 CALM      30.05R
BAINBRIDGE     CLEAR     55  54  94 CALM      30.05R
MOODY AFB      CLEAR     55  51  86 N3        30.03R
VALDOSTA       CLEAR     54  54 100 CALM      30.03S
MOULTRIE       PTCLDY    57  54  88 CALM      30.05R
BLAKELY        CLEAR     54  52  94 CALM      30.05S
ALBANY         CLEAR     54  51  90 CALM      30.06S
TIFTON         FAIR      54  54 100 CALM      30.04S
FITZGERALD       N/A     56  56 100 CALM      30.07R
CORDELE        FAIR      54  52  92 CALM      30.06R
AMERICUS       FAIR      52  50  93 CALM      30.06S
HOMERVILLE     FAIR      54  52  94 CALM      30.05R
$$

!GMZ750-755-770-775-011100
...Coastal and Buoy Obs...

STATION/POSITION TIME  TEMP    WIND        PRES    VSBY  WAVE
                       AIR SEA DIR/SP/G                  HT/PER
                 (UTC) (F)     (DEG/KT/KT) (MB)    (MI)  (FT/S)
KEATON BEACH     1000   64      30/  4/  6 1016.4R
CEDAR KEY        1000   72      40/  5/  6 1017.3R
C TOWER          1000   75      30/ 11/ 12 1017.4R
APALACHICOLA BUO 0950   79 84  320/  8/ 10 1016.2R         1/ 3
PANAMA CITY BUOY 0950   77 84              1016.7F         1/ 3
MOBILE BUOY      1000   77 84   60/  6/  8 1016.5F
ORANGE BCH AL BU 0950   76 83   40/  4/  6 1017.3F         1
$$




USA.gov is the U.S. government's official web portal to all federal, state and local government web resources and services.